Weather History for Battle Creek, MI

Change the Weather History Date:

Friday, January 18, 2013

  Actual Average Record
Temperature  
Mean Temperature 28 °F 23 °F  
Max Temperature 36 °F 31 °F 36 °F (2013)
Min Temperature 19 °F 15 °F -6 °F (2005)
Degree Days  
Heating Degree Days 37 42  
Month to date heating degree days 577 746  
Since 1 July heating degree days 2938 3346  
Cooling Degree Days 0 0  
Month to date cooling degree days 0 0  
Year to date cooling degree days 0 0  
Moisture  
Dew Point 17 °F    
Average Humidity 63    
Maximum Humidity 73    
Minimum Humidity 52    
Precipitation  
Precipitation 0.00 in 0.05 in 0.25 in (1999)
Month to date precipitation 1.37 1.09  
Year to date precipitation 1.37 1.09  
Sea Level Pressure  
Sea Level Pressure 30.24 in    
Wind  
Wind Speed 14 mph (SSW)    
Max Wind Speed 28 mph    
Max Gust Speed 36 mph    
Visibility 10 miles    
Events      
T = Trace of Precipitation, MM = Missing Value Source: NWS Daily Summary

Daily Weather History Graph

Daily Weather History Graph

Search for Another Location

Airport:

Trip Planner

Search our weather history database for the weather conditions in past years. The results will help you decide how hot, cold, wet, or windy it might be!

Date:

Astronomy

Jan. 18, 2013 Rise Set
Actual Time 8:05 AM EST 5:37 PM EST
Civil Twilight 7:34 AM EST 6:08 PM EST
Nautical Twilight 7:00 AM EST 6:43 PM EST
Astronomical Twilight 6:27 AM EST 7:16 PM EST
Moon 11:34 AM EST (1/18) 12:36 AM EST (1/18)
Length of Visible Light 10h 33m
Length of Day
9h 32m
Waxing Crescent, 47% of the Moon is Illuminated
Jan 18
Waxing Crescent
Jan 18
First Quarter
Jan 26
Full
Feb 3
Last Quarter
Feb 10
New

Hourly Weather History & Observations

Time (EST) Temp. Windchill Dew Point Humidity Pressure Visibility Wind Dir Wind Speed Gust Speed Precip Events Conditions
12:53 AM 21.9 °F 11.7 °F 10.9 °F 63% 30.37 in 10.0 mi NW 9.2 mph - N/A   Overcast
1:53 AM 21.0 °F 13.4 °F 10.9 °F 65% 30.39 in 10.0 mi NW 5.8 mph - N/A   Overcast
2:53 AM 21.0 °F 13.4 °F 10.9 °F 65% 30.42 in 10.0 mi NW 5.8 mph - N/A   Overcast
3:53 AM 19.9 °F - 10.9 °F 68% 30.42 in 10.0 mi Calm Calm - N/A   Overcast
4:53 AM 19.9 °F - 12.0 °F 71% 30.42 in 10.0 mi Calm Calm - N/A   Overcast
5:53 AM 19.0 °F 13.9 °F 12.9 °F 77% 30.42 in 10.0 mi South 3.5 mph - N/A   Partly Cloudy
6:53 AM 19.9 °F - 12.0 °F 71% 30.43 in 10.0 mi Calm Calm - N/A   Partly Cloudy
7:53 AM 19.9 °F 11.1 °F 12.9 °F 74% 30.42 in 10.0 mi South 6.9 mph - N/A   Overcast
8:53 AM 21.0 °F 10.6 °F 14.0 °F 74% 30.41 in 10.0 mi South 9.2 mph - N/A   Scattered Clouds
9:53 AM 24.1 °F 12.5 °F 16.0 °F 71% 30.41 in 10.0 mi SSW 12.7 mph - N/A   Overcast
10:53 AM 26.6 °F 14.7 °F 17.6 °F 69% 30.34 in 10.0 mi South 15.0 mph - N/A   Overcast
11:53 AM 28.0 °F 15.7 °F 16.0 °F 61% 30.35 in 10.0 mi SSW 17.3 mph - N/A   Partly Cloudy
12:53 PM 30.9 °F 19.4 °F 17.1 °F 57% 30.27 in 10.0 mi SSW 17.3 mph 26.5 mph N/A   Mostly Cloudy
1:53 PM 30.9 °F 18.1 °F 19.0 °F 61% 30.22 in 10.0 mi SSW 21.9 mph 25.3 mph N/A   Overcast
2:53 PM 33.1 °F 20.1 °F 19.9 °F 59% 30.17 in 10.0 mi SSW 25.3 mph 35.7 mph N/A   Mostly Cloudy
3:53 PM 34.0 °F 21.3 °F 19.9 °F 56% 30.14 in 10.0 mi SSW 25.3 mph 31.1 mph N/A   Mostly Cloudy
4:53 PM 34.0 °F 22.4 °F 21.0 °F 59% 30.09 in 10.0 mi SSW 20.7 mph 31.1 mph N/A   Clear
5:53 PM 35.1 °F 23.3 °F 21.0 °F 57% 30.05 in 10.0 mi South 23.0 mph 32.2 mph N/A   Clear
6:53 PM 34.0 °F 22.1 °F 19.9 °F 56% 30.02 in 10.0 mi South 21.9 mph 31.1 mph N/A   Clear
7:53 PM 34.0 °F 23.4 °F 19.9 °F 56% 30.03 in 10.0 mi SSW 17.3 mph 25.3 mph N/A   Clear
8:53 PM 35.1 °F 23.3 °F 19.9 °F 54% 30.02 in 10.0 mi SSW 23.0 mph 31.1 mph N/A   Clear
9:53 PM 35.1 °F 24.5 °F 21.0 °F 57% 30.00 in 10.0 mi SSW 18.4 mph 28.8 mph N/A   Clear
10:53 PM 36.0 °F 24.7 °F 21.9 °F 57% 29.98 in 10.0 mi SSW 21.9 mph 27.6 mph N/A   Clear
11:53 PM 35.1 °F 24.5 °F 23.0 °F 61% 29.96 in 10.0 mi SW 18.4 mph 26.5 mph N/A   Clear